Date String (YYYY-MM-DD hh:mm:ss) UTC,Instrument flags,absolute air pressure of the measurement (hPa),sample flow rate (lpm),inlet stack bypass flow (lpm),air temperature of the measurement (°C),ambient temperature measured by the external sensor (°C),aerosol sample conditioner tube jacket temperature (°C),OPC LED temperature (°C),internal box temperature (°C),relative humidity of the measurement (%),span deviation,mass concentration of particles derived from Lorenz-Mie calculation of OPC scattering (μg/m³),mass concentration of particles derived from Lorenz-Mie calculation of OPC scattering (μg/m³),mass concentration of particles derived from Lorenz-Mie calculation of OPC scattering (μg/m³)
DateTimeUTC,F1_M11,P_M11,Q1_M11,Q2_M11,T1_M11,T2_M11,T3_M11,T4_M11,T5_M11,U1_M11,ZSPAN_M11,X0_M11,X2_M11,X1_M11
2023-08-04 05:00:00,SystemResetWarning,0833.1,5.03,000.00,030.7,026.0,000.0,038.9,031.0,35.7,0000.0,0008.19,0003.90,0003.38
2023-08-04 05:01:00,SystemResetWarning,0833.2,4.99,000.00,030.9,026.4,000.0,038.9,031.2,35.5,0000.0,0008.22,0003.91,0003.38
2023-08-04 05:02:00,SystemResetWarning,0833.2,5.00,000.00,031.2,026.8,000.0,038.9,031.4,34.7,0000.0,0008.32,0003.93,0003.38
2023-08-04 05:03:00,SystemResetWarning,0833.2,4.98,000.00,031.4,027.1,000.0,038.9,031.5,34.2,0000.0,0008.44,0003.94,0003.39
2023-08-04 05:04:00,SystemResetWarning,0833.2,5.01,000.00,031.5,027.4,000.0,039.0,031.6,33.8,0000.0,0007.82,0003.94,0003.39
2023-08-04 05:05:00,SystemResetWarning,0833.2,5.01,000.00,031.6,027.6,000.0,039.1,031.6,33.7,0000.0,0007.67,0003.93,0003.39
2023-08-04 05:06:00,SystemResetWarning,0833.2,4.99,000.00,031.7,027.8,000.0,039.1,031.6,33.6,0000.0,0007.97,0003.94,0003.39
2023-08-04 05:07:00,SystemResetWarning,0833.2,5.00,000.00,031.7,028.0,000.0,039.2,031.7,33.8,0000.0,0008.07,0003.95,0003.38
2023-08-04 05:08:00,SystemResetWarning,0833.2,5.00,000.00,031.7,028.2,000.0,039.3,031.7,33.8,0000.0,0008.42,0003.94,0003.38
2023-08-04 05:09:00,SystemResetWarning,0833.1,5.00,000.00,031.7,028.3,000.0,039.4,031.7,34.0,0000.0,0009.17,0003.91,0003.37
2023-08-04 05:10:00,SystemResetWarning,0833.2,5.00,000.00,031.7,028.4,000.0,039.4,031.8,34.0,0000.0,0008.95,0003.87,0003.37
2023-08-04 05:11:00,SystemResetWarning,0833.2,4.99,000.00,031.7,027.9,000.0,039.4,031.7,34.1,0000.0,0009.16,0003.88,0003.37
2023-08-04 05:12:00,SystemResetWarning,0833.1,5.00,000.00,031.7,026.3,000.0,039.3,031.5,34.2,0000.0,0010.11,0003.88,0003.38
2023-08-04 05:13:00,SystemResetWarning,0833.0,5.00,000.00,031.6,025.6,000.0,039.2,031.3,34.5,0000.0,0010.07,0003.86,0003.37
2023-08-04 05:14:00,SystemResetWarning,0833.1,5.00,000.00,031.4,025.7,000.0,039.3,031.0,34.8,0000.0,0010.00,0003.85,0003.37
2023-08-04 05:15:00,SystemResetWarning,0833.0,4.99,000.00,031.3,026.0,000.0,039.3,031.1,35.2,0000.0,0010.12,0003.86,0003.36
2023-08-04 05:16:00,SystemResetWarning,0833.0,5.02,000.00,031.4,026.4,000.0,039.3,031.3,35.2,0000.0,0010.02,0003.87,0003.36
2023-08-04 05:17:00,SystemResetWarning,0833.0,4.98,000.00,031.6,026.8,000.0,039.3,031.5,34.6,0000.0,0009.79,0003.88,0003.36
2023-08-04 05:18:00,SystemResetWarning,0833.1,5.00,000.00,031.8,027.1,000.0,039.3,031.6,34.3,0000.0,0009.73,0003.86,0003.36
2023-08-04 05:19:00,SystemResetWarning,0833.1,5.01,000.00,031.8,027.4,000.0,039.4,031.6,34.1,0000.0,0009.41,0003.86,0003.36
2023-08-04 05:20:00,SystemResetWarning,0833.2,4.99,000.00,031.9,027.6,000.0,039.4,031.6,33.9,0000.0,0008.59,0003.88,0003.37
2023-08-04 05:21:00,SystemResetWarning,0833.2,5.00,000.00,031.9,027.8,000.0,039.5,031.7,33.7,0000.0,0008.47,0003.88,0003.37
2023-08-04 05:22:00,SystemResetWarning,0833.2,5.00,000.00,031.9,028.0,000.0,039.5,031.7,33.6,0000.0,0008.33,0003.90,0003.38
2023-08-04 05:23:00,SystemResetWarning,0833.2,5.00,000.00,031.9,028.2,000.0,039.6,031.7,33.6,0000.0,0007.46,0003.91,0003.38
2023-08-04 05:24:00,SystemResetWarning,0833.2,5.00,000.00,031.9,028.3,000.0,039.6,031.7,33.5,0000.0,0007.46,0003.93,0003.38
2023-08-04 05:25:00,SystemResetWarning,0833.2,5.00,000.00,031.9,028.4,000.0,039.7,031.8,33.4,0000.0,0007.39,0003.92,0003.39
2023-08-04 05:26:00,SystemResetWarning,0833.2,5.00,000.00,031.9,028.4,000.0,039.7,031.9,33.4,0000.0,0007.11,0003.92,0003.39
2023-08-04 05:27:00,SystemResetWarning,0833.2,5.00,000.00,031.8,027.1,000.0,039.6,031.8,33.4,0000.0,0006.87,0003.89,0003.39
2023-08-04 05:28:00,SystemResetWarning,0833.2,5.00,000.00,031.8,025.9,000.0,039.5,031.5,33.4,0000.0,0007.01,0003.90,0003.39
2023-08-04 05:29:00,SystemResetWarning,0833.2,5.01,000.00,031.7,025.7,000.0,039.4,031.3,33.6,0000.0,0007.35,0003.91,0003.39
2023-08-04 05:30:00,SystemResetWarning,0833.2,5.02,000.00,031.5,025.9,000.0,039.5,031.2,34.0,0000.0,0008.15,0003.94,0003.39
2023-08-04 05:31:00,SystemResetWarning,0833.2,5.00,000.00,031.4,026.3,000.0,039.5,031.2,34.3,0000.0,0008.11,0003.94,0003.40
2023-08-04 05:32:00,SystemResetWarning,0833.2,5.00,000.00,031.3,026.7,000.0,039.5,031.3,34.4,0000.0,0008.25,0003.96,0003.40
2023-08-04 05:33:00,SystemResetWarning,0833.3,5.00,000.00,031.2,027.0,000.0,039.5,031.4,34.5,0000.0,0008.32,0003.97,0003.40
2023-08-04 05:34:00,SystemResetWarning,0833.3,5.00,000.00,031.2,027.3,000.0,039.5,031.4,34.4,0000.0,0008.25,0003.97,0003.41
2023-08-04 05:35:00,SystemResetWarning,0833.3,4.99,000.00,031.2,027.5,000.0,039.4,031.5,34.4,0000.0,0008.30,0004.01,0003.42
2023-08-04 05:36:00,SystemResetWarning,0833.3,5.00,000.00,031.1,027.8,000.0,039.4,031.5,34.4,0000.0,0008.37,0004.05,0003.44
2023-08-04 05:37:00,SystemResetWarning,0833.3,5.01,000.00,031.1,027.9,000.0,039.4,031.6,34.4,0000.0,0008.44,0004.07,0003.45
2023-08-04 05:38:00,SystemResetWarning,0833.3,5.01,000.00,031.1,028.1,000.0,039.4,031.6,34.5,0000.0,0008.72,0004.17,0003.45
2023-08-04 05:39:00,SystemResetWarning,0833.3,5.00,000.00,031.1,028.2,000.0,039.4,031.6,34.5,0000.0,0008.66,0004.17,0003.46
2023-08-04 05:40:00,SystemResetWarning,0833.4,5.00,000.00,031.1,028.3,000.0,039.4,031.7,34.4,0000.0,0008.40,0004.18,0003.48
2023-08-04 05:41:00,SystemResetWarning,0833.4,5.00,000.00,031.1,028.4,000.0,039.3,031.7,34.3,0000.0,0007.78,0004.18,0003.49
2023-08-04 05:42:00,SystemResetWarning,0833.4,5.00,000.00,031.0,028.5,000.0,039.3,031.7,34.3,0000.0,0008.18,0004.20,0003.51
2023-08-04 05:43:00,SystemResetWarning,0833.4,4.99,000.00,031.0,028.0,000.0,039.3,031.7,34.3,0000.0,0008.51,0004.25,0003.55
2023-08-04 05:44:00,SystemResetWarning,0833.4,5.00,000.00,031.0,026.3,000.0,039.1,031.5,34.4,0000.0,0008.61,0004.34,0003.61
2023-08-04 05:45:00,SystemResetWarning,0833.4,5.01,000.00,030.9,025.6,000.0,039.0,031.3,34.6,0000.0,0008.76,0004.46,0003.72
2023-08-04 05:46:00,SystemResetWarning,0833.3,5.00,000.00,030.7,025.6,000.0,039.0,031.0,34.9,0000.0,0008.93,0004.61,0003.87
2023-08-04 05:47:00,SystemResetWarning,0833.3,4.98,000.00,030.6,026.0,000.0,039.0,031.0,35.2,0000.0,0009.33,0004.80,0004.05
2023-08-04 05:48:00,SystemResetWarning,0833.4,5.03,000.00,030.8,026.4,000.0,039.0,031.2,34.8,0000.4,0009.89,0005.02,0004.24
2023-08-04 05:49:00,SystemResetWarning,0833.4,4.97,000.00,030.9,026.8,000.0,039.0,031.3,34.0,0002.1,0010.00,0005.18,0004.45
2023-08-04 05:50:00,SystemResetWarning,0833.4,5.02,000.00,031.0,027.1,000.0,039.0,031.4,33.6,0002.3,0010.32,0005.42,0004.68
2023-08-04 05:51:00,SystemResetWarning,0833.4,4.99,000.00,031.0,027.4,000.0,039.0,031.4,33.6,0002.3,0010.56,0005.62,0004.88
2023-08-04 05:52:00,SystemResetWarning,0833.4,4.99,000.00,031.0,027.6,000.0,039.0,031.4,33.8,0002.2,0011.01,0005.96,0005.19
2023-08-04 05:53:00,SystemResetWarning,0833.5,4.99,000.00,031.0,027.8,000.0,039.0,031.5,33.8,0001.9,0011.11,0006.36,0005.54
2023-08-04 05:54:00,SystemResetWarning,0833.4,5.01,000.00,031.1,028.0,000.0,039.1,031.5,33.6,0002.0,0011.19,0006.74,0005.89
2023-08-04 05:55:00,SystemResetWarning,0833.4,5.01,000.00,031.1,028.1,000.0,039.1,031.5,33.5,0001.6,0011.54,0007.09,0006.21
2023-08-04 05:56:00,SystemResetWarning,0833.4,5.01,000.00,031.1,028.2,000.0,039.1,031.6,33.4,0001.2,0011.84,0007.31,0006.39
2023-08-04 05:57:00,SystemResetWarning,0833.4,5.00,000.00,031.1,028.3,000.0,039.2,031.6,33.5,0001.1,0012.12,0007.53,0006.56
2023-08-04 05:58:00,SystemResetWarning,0833.4,5.00,000.00,031.1,028.4,000.0,039.2,031.6,33.5,0000.5,0012.35,0007.70,0006.70
2023-08-04 05:59:00,SystemResetWarning,0833.4,4.99,000.00,031.0,028.4,000.0,039.2,031.7,33.5,-000.1,0012.43,0007.88,0006.86
